Location: Dalton
(42.4737°N, 73.1662°W)
Time: 19:57:41
(UTC+00:00)

Envisat - Pass Details

Date: 27 September 2024
Orbit: 762 x 764 km, 98.3° (Epoch: 09 October)

Event Time Altitude Azimuth Distance (km) Brightness Sun altitude
Rises 08:13:59 0° 11° (N) 3,235 6.7 -28.0°
Reaches altitude 10° 08:16:18 10° 10° (N) 2,304 5.9 -27.6°
Enters shadow 08:20:43 65° 341° (NNW) 839 3.1 -26.9°
